| time (UTC) | temp F | wind direction | speed MPH | gust MPH | rain 1hr in | rain 24hr in | rain mn in | humidity % | barometer mb |
| 20260507073537 | 34 | 225 | 2.0 | 3.0 | 0.00 | 0.00 | 0.00 | 75 | 1014.4 |
| 20260507072517 | 34 | 225 | 2.0 | 4.0 | 0.00 | 0.00 | 0.00 | 74 | 1014.5 |
| 20260507071517 | 35 | 225 | 2.0 | 3.0 | 0.00 | 0.00 | 0.00 | 75 | 1014.7 |
| 20260507070517 | 36 | 225 | 2.0 | 4.0 | 0.00 | 0.00 | 0.00 | 73 | 1014.8 |
| 20260507065517 | 37 | 225 | 3.0 | 4.0 | 0.00 | 0.00 | 0.00 | 70 | 1015.0 |
| 20260507064538 | 38 | 248 | 3.0 | 4.0 | 0.00 | 0.00 | 0.00 | 69 | 1015.0 |
| 20260507063518 | 38 | 248 | 3.0 | 4.0 | 0.00 | 0.00 | 0.00 | 69 | 1015.2 |
| 20260507062517 | 38 | 248 | 3.0 | 4.0 | 0.00 | 0.00 | 0.00 | 70 | 1015.3 |
| 20260507061517 | 38 | 248 | 3.0 | 3.0 | 0.00 | 0.00 | 0.00 | 69 | 1015.5 |
| 20260507060517 | 38 | 248 | 3.0 | 4.0 | 0.00 | 0.00 | 0.00 | 68 | 1015.5 |
| 20260507055537 | 38 | 248 | 3.0 | 4.0 | 0.00 | 0.00 | 0.00 | 67 | 1015.5 |
| 20260507054517 | 38 | 248 | 3.0 | 4.0 | 0.00 | 0.00 | 0.00 | 66 | 1015.7 |
| 20260507053518 | 38 | 248 | 3.0 | 3.0 | 0.00 | 0.00 | 0.00 | 67 | 1015.7 |
| 20260507052517 | 38 | 248 | 3.0 | 4.0 | 0.00 | 0.00 | 0.00 | 67 | 1015.8 |
| 20260507051517 | 38 | 248 | 3.0 | 4.0 | 0.00 | 0.00 | 0.00 | 67 | 1015.9 |
| 20260507050517 | 38 | 248 | 3.0 | 4.0 | 0.00 | 0.00 | 0.00 | 66 | 1015.9 |
| 20260507045517 | 38 | 248 | 3.0 | 3.0 | 0.00 | 0.00 | 0.00 | 65 | 1015.9 |
| 20260507044518 | 38 | 225 | 2.0 | 3.0 | 0.00 | 0.00 | 0.00 | 64 | 1016.0 |
| 20260507043518 | 38 | 248 | 3.0 | 4.0 | 0.00 | 0.00 | 0.00 | 65 | 1016.0 |
| 20260507042517 | 38 | 248 | 3.0 | 4.0 | 0.00 | 0.00 | 0.00 | 64 | 1015.8 |
| 20260507041517 | 38 | 270 | 4.0 | 4.0 | 0.00 | 0.00 | 0.00 | 65 | 1015.9 |
| 20260507040522 | 38 | 248 | 4.0 | 4.0 | 0.00 | 0.00 | 0.00 | 66 | 1015.8 |
| 20260507035517 | 39 | 248 | 4.0 | 4.0 | 0.00 | 0.00 | 0.00 | 65 | 1015.7 |
| 20260507034517 | 39 | 270 | 3.0 | 4.0 | 0.00 | 0.00 | 0.00 | 65 | 1015.6 |
| 20260507033517 | 39 | 270 | 3.0 | 4.0 | 0.00 | 0.00 | 0.00 | 65 | 1015.6 |
| 20260507032517 | 39 | 248 | 4.0 | 5.0 | 0.00 | 0.00 | 0.00 | 65 | 1015.7 |
| 20260507031519 | 39 | 248 | 4.0 | 4.0 | 0.00 | 0.00 | 0.00 | 66 | 1015.6 |
| 20260507030517 | 39 | 248 | 4.0 | 5.0 | 0.00 | 0.00 | 0.00 | 65 | 1015.7 |
| 20260507025517 | 40 | 270 | 4.0 | 6.0 | 0.00 | 0.00 | 0.00 | 64 | 1015.7 |
| 20260507024517 | 40 | 270 | 4.0 | 6.0 | 0.00 | 0.00 | 0.00 | 62 | 1015.6 |
| 20260507023537 | 40 | 270 | 5.0 | 7.0 | 0.00 | 0.00 | 0.00 | 63 | 1015.6 |
| 20260507022517 | 40 | 270 | 5.0 | 6.0 | 0.00 | 0.00 | 0.00 | 63 | 1015.5 |
| 20260507021537 | 40 | 248 | 5.0 | 6.0 | 0.00 | 0.00 | 0.00 | 65 | 1015.3 |
| 20260507020520 | 40 | 248 | 5.0 | 6.0 | 0.00 | 0.00 | 0.00 | 66 | 1015.3 |
| 20260507015558 | 40 | 248 | 5.0 | 6.0 | 0.00 | 0.00 | 0.00 | 67 | 1015.2 |
| 20260507014517 | 40 | 248 | 5.0 | 6.0 | 0.00 | 0.00 | 0.00 | 67 | 1015.0 |
| 20260507013517 | 41 | 248 | 5.0 | 5.0 | 0.00 | 0.00 | 0.00 | 66 | 1014.8 |
| 20260507012537 | 41 | 248 | 6.0 | 10.0 | 0.00 | 0.00 | 0.00 | 65 | 1014.8 |
| 20260507011537 | 42 | 248 | 7.0 | 8.0 | 0.00 | 0.00 | 0.00 | 63 | 1014.6 |
| 20260507010537 | 42 | 248 | 6.0 | 9.0 | 0.00 | 0.00 | 0.00 | 63 | 1014.5 |
| 20260507005517 | 42 | 248 | 5.0 | 7.0 | 0.00 | 0.00 | 0.00 | 61 | 1014.4 |
| 20260507004518 | 43 | 248 | 6.0 | 8.0 | 0.00 | 0.00 | 0.00 | 60 | 1014.3 |
| 20260507003517 | 44 | 248 | 7.0 | 10.0 | 0.00 | 0.00 | 0.00 | 58 | 1014.3 |
| 20260507002517 | 46 | 248 | 10.0 | 13.0 | 0.00 | 0.00 | 0.00 | 53 | 1014.2 |
| 20260507001517 | 46 | 248 | 10.0 | 14.0 | 0.00 | 0.00 | 0.00 | 52 | 1013.9 |
| 20260507000517 | 46 | 248 | 10.0 | 16.0 | 0.00 | 0.00 | 0.00 | 52 | 1013.9 |
| 20260506235517 | 47 | 248 | 13.0 | 17.0 | 0.00 | 0.00 | 0.00 | 51 | 1013.8 |
| 20260506234517 | 48 | 248 | 13.0 | 17.0 | 0.00 | 0.00 | 0.00 | 49 | 1013.7 |
| 20260506233517 | 48 | 248 | 13.0 | 17.0 | 0.00 | 0.00 | 0.00 | 49 | 1013.8 |
| 20260506232517 | 49 | 270 | 10.0 | 17.0 | 0.00 | 0.00 | 0.00 | 51 | 1013.7 |
| 20260506231517 | 49 | 248 | 10.0 | 14.0 | 0.00 | 0.00 | 0.00 | 52 | 1013.7 |
| 20260506230517 | 48 | 248 | 13.0 | 17.0 | 0.00 | 0.00 | 0.00 | 50 | 1013.6 |
| 20260506225517 | 49 | 248 | 13.0 | 15.0 | 0.00 | 0.00 | 0.00 | 49 | 1013.5 |
| 20260506224517 | 49 | 248 | 12.0 | 16.0 | 0.00 | 0.00 | 0.00 | 47 | 1013.5 |
| 20260506223516 | 49 | 248 | 11.0 | 14.0 | 0.00 | 0.00 | 0.00 | 48 | 1013.5 |
| 20260506222517 | 50 | 248 | 8.0 | 11.0 | 0.00 | 0.00 | 0.00 | 47 | 1013.6 |
| 20260506221517 | 50 | 248 | 10.0 | 16.0 | 0.00 | 0.00 | 0.00 | 44 | 1013.5 |
| 20260506220517 | 51 | 248 | 12.0 | 16.0 | 0.00 | 0.00 | 0.00 | 42 | 1013.5 |
| 20260506215516 | 51 | 270 | 13.0 | 16.0 | 0.00 | 0.00 | 0.00 | 46 | 1013.5 |
| 20260506214517 | 50 | 248 | 10.0 | 16.0 | 0.00 | 0.00 | 0.00 | 48 | 1013.6 |
| 20260506213517 | 50 | 248 | 13.0 | 17.0 | 0.00 | 0.00 | 0.00 | 45 | 1013.4 |
| 20260506212517 | 50 | 248 | 8.0 | 14.0 | 0.00 | 0.00 | 0.00 | 48 | 1013.4 |
| 20260506211516 | 50 | 270 | 10.0 | 15.0 | 0.00 | 0.00 | 0.00 | 46 | 1013.5 |
| 20260506210516 | 50 | 248 | 10.0 | 14.0 | 0.00 | 0.00 | 0.00 | 47 | 1013.4 |
| 20260506205517 | 49 | 270 | 7.0 | 11.0 | 0.00 | 0.00 | 0.00 | 52 | 1013.6 |
| 20260506204516 | 49 | 270 | 7.0 | 12.0 | 0.00 | 0.00 | 0.00 | 48 | 1013.5 |
| 20260506203516 | 49 | 248 | 7.0 | 10.0 | 0.00 | 0.00 | 0.00 | 46 | 1013.6 |
| 20260506202538 | 49 | 270 | 7.0 | 12.0 | 0.00 | 0.00 | 0.00 | 46 | 1013.6 |
| 20260506201518 | 49 | 270 | 8.0 | 12.0 | 0.00 | 0.00 | 0.00 | 51 | 1013.8 |
| 20260506200517 | 49 | 270 | 7.0 | 11.0 | 0.00 | 0.00 | 0.00 | 49 | 1013.9 |
| 20260506195517 | 50 | 248 | 9.0 | 12.0 | 0.00 | 0.00 | 0.00 | 50 | 1014.0 |
| 20260506194516 | 50 | 225 | 9.0 | 13.0 | 0.00 | 0.00 | 0.00 | 50 | 1013.9 |
| 20260506193537 | 49 | 248 | 8.0 | 11.0 | 0.00 | 0.00 | 0.00 | 52 | 1013.9 |
| 20260506192516 | 49 | 248 | 9.0 | 13.0 | 0.00 | 0.00 | 0.00 | 51 | 1013.9 |
| 20260506191516 | 49 | 248 | 8.0 | 11.0 | 0.00 | 0.00 | 0.00 | 52 | 1013.9 |
| 20260506190516 | 49 | 270 | 9.0 | 12.0 | 0.00 | 0.00 | 0.00 | 51 | 1013.9 |
| 20260506185517 | 49 | 248 | 7.0 | 14.0 | 0.00 | 0.00 | 0.00 | 49 | 1013.9 |
| 20260506184516 | 49 | 248 | 11.0 | 14.0 | 0.00 | 0.00 | 0.00 | 49 | 1013.9 |
| 20260506183516 | 49 | 270 | 7.0 | 10.0 | 0.00 | 0.00 | 0.00 | 50 | 1013.8 |
| 20260506182516 | 49 | 248 | 6.0 | 10.0 | 0.00 | 0.00 | 0.00 | 50 | 1014.0 |
| 20260506181516 | 48 | 225 | 8.0 | 13.0 | 0.00 | 0.00 | 0.00 | 52 | 1014.0 |
| 20260506180516 | 48 | 248 | 7.0 | 10.0 | 0.00 | 0.00 | 0.00 | 50 | 1014.1 |
| 20260506175516 | 48 | 225 | 8.0 | 12.0 | 0.00 | 0.00 | 0.00 | 52 | 1014.2 |
| 20260506174516 | 49 | 248 | 8.0 | 12.0 | 0.00 | 0.00 | 0.00 | 50 | 1014.2 |
| 20260506173516 | 48 | 248 | 5.0 | 10.0 | 0.00 | 0.00 | 0.00 | 51 | 1014.3 |
| 20260506172518 | 47 | 248 | 5.0 | 8.0 | 0.00 | 0.00 | 0.00 | 54 | 1014.5 |
| 20260506171516 | 47 | 270 | 5.0 | 8.0 | 0.00 | 0.00 | 0.00 | 55 | 1014.5 |
| 20260506170537 | 46 | 270 | 5.0 | 10.0 | 0.00 | 0.00 | 0.00 | 53 | 1014.4 |
| 20260506165517 | 46 | 270 | 5.0 | 8.0 | 0.00 | 0.00 | 0.00 | 54 | 1014.5 |
| 20260506164536 | 46 | 293 | 2.0 | 4.0 | 0.00 | 0.00 | 0.00 | 55 | 1014.6 |
| 20260506163516 | 46 | 270 | 3.0 | 6.0 | 0.00 | 0.00 | 0.00 | 55 | 1014.5 |
| 20260506162516 | 46 | 270 | 3.0 | 7.0 | 0.00 | 0.00 | 0.00 | 53 | 1014.6 |
| 20260506161516 | 47 | 248 | 2.0 | 4.0 | 0.00 | 0.00 | 0.00 | 53 | 1014.8 |
| 20260506160536 | 46 | 270 | 2.0 | 5.0 | 0.00 | 0.00 | 0.00 | 55 | 1014.8 |
| 20260506155536 | 47 | 0.0 | 2.0 | 0.00 | 0.00 | 0.00 | 53 | 1014.9 | |
| 20260506154517 | 46 | 0.0 | 2.0 | 0.00 | 0.00 | 0.00 | 55 | 1015.0 | |
| 20260506153517 | 46 | 270 | 2.0 | 4.0 | 0.00 | 0.00 | 0.00 | 54 | 1014.9 |
| 20260506152517 | 47 | 315 | 3.0 | 6.0 | 0.00 | 0.00 | 0.00 | 58 | 1015.0 |
| 20260506151516 | 47 | 248 | 3.0 | 4.0 | 0.00 | 0.00 | 0.00 | 57 | 1014.9 |
| 20260506150516 | 47 | 293 | 2.0 | 7.0 | 0.00 | 0.00 | 0.00 | 55 | 1014.9 |
| 20260506145517 | 46 | 293 | 3.0 | 5.0 | 0.00 | 0.00 | 0.00 | 55 | 1014.9 |
| 20260506144516 | 45 | 293 | 2.0 | 5.0 | 0.00 | 0.00 | 0.00 | 56 | 1014.8 |
| 20260506143516 | 45 | 225 | 1.0 | 3.0 | 0.00 | 0.00 | 0.00 | 62 | 1014.7 |
| 20260506142516 | 44 | 270 | 2.0 | 4.0 | 0.00 | 0.00 | 0.00 | 61 | 1014.7 |
| 20260506141536 | 44 | 293 | 3.0 | 4.0 | 0.00 | 0.00 | 0.00 | 60 | 1014.7 |
| 20260506140516 | 44 | 315 | 3.0 | 6.0 | 0.00 | 0.00 | 0.00 | 59 | 1014.8 |
| 20260506135517 | 44 | 23 | 2.0 | 4.0 | 0.00 | 0.00 | 0.00 | 63 | 1014.7 |
| 20260506134516 | 43 | 90 | 1.0 | 4.0 | 0.00 | 0.00 | 0.00 | 61 | 1014.6 |
| 20260506133516 | 43 | 90 | 2.0 | 5.0 | 0.00 | 0.00 | 0.00 | 63 | 1014.5 |
| 20260506132515 | 43 | 90 | 3.0 | 6.0 | 0.00 | 0.00 | 0.00 | 63 | 1014.6 |
| 20260506131516 | 41 | 90 | 3.0 | 5.0 | 0.00 | 0.00 | 0.00 | 69 | 1014.5 |
| 20260506130536 | 40 | 90 | 3.0 | 5.0 | 0.00 | 0.00 | 0.00 | 70 | 1014.4 |
| 20260506125515 | 39 | 90 | 2.0 | 5.0 | 0.00 | 0.00 | 0.00 | 73 | 1014.6 |
| 20260506124521 | 39 | 90 | 1.0 | 3.0 | 0.00 | 0.00 | 0.00 | 74 | 1014.3 |
| 20260506123519 | 38 | 90 | 2.0 | 4.0 | 0.00 | 0.00 | 0.00 | 75 | 1014.2 |
| 20260506122516 | 38 | 90 | 1.0 | 3.0 | 0.00 | 0.00 | 0.00 | 76 | 1014.1 |
| 20260506121516 | 39 | 0.0 | 1.0 | 0.00 | 0.00 | 0.00 | 80 | 1014.1 | |
| 20260506120516 | 36 | 0.0 | 0.0 | 0.00 | 0.00 | 0.00 | 90 | 1013.9 | |
| 20260506115536 | 34 | 0.0 | 1.0 | 0.00 | 0.00 | 0.00 | 90 | 1013.8 | |
| 20260506114516 | 33 | 0.0 | 0.0 | 0.00 | 0.00 | 0.00 | 90 | 1013.7 | |
| 20260506113515 | 33 | 0.0 | 1.0 | 0.00 | 0.00 | 0.00 | 90 | 1013.7 | |
| 20260506112516 | 32 | 0.0 | 1.0 | 0.00 | 0.00 | 0.00 | 89 | 1013.6 | |
| 20260506111516 | 32 | 315 | 2.0 | 3.0 | 0.00 | 0.00 | 0.00 | 88 | 1013.5 |
| 20260506110536 | 32 | 0.0 | 2.0 | 0.00 | 0.00 | 0.00 | 85 | 1013.3 | |
| 20260506105516 | 33 | 0.0 | 0.0 | 0.00 | 0.00 | 0.00 | 86 | 1013.0 | |
| 20260506104515 | 32 | 0.0 | 0.0 | 0.00 | 0.00 | 0.00 | 87 | 1012.9 | |
| 20260506103515 | 31 | 0.0 | 1.0 | 0.00 | 0.00 | 0.00 | 86 | 1013.1 | |
| 20260506102516 | 32 | 0.0 | 1.0 | 0.00 | 0.00 | 0.00 | 86 | 1012.8 | |
| 20260506101516 | 32 | 0.0 | 0.0 | 0.00 | 0.00 | 0.00 | 85 | 1012.7 | |
| 20260506100516 | 32 | 0.0 | 0.0 | 0.00 | 0.00 | 0.00 | 83 | 1012.8 | |
| 20260506095535 | 33 | 0.0 | 1.0 | 0.00 | 0.00 | 0.00 | 82 | 1012.8 | |
| 20260506094618 | 33 | 0.0 | 0.0 | 0.00 | 0.00 | 0.00 | 82 | 1012.8 | |
| 20260506093536 | 33 | 0.0 | 0.0 | 0.00 | 0.00 | 0.00 | 82 | 1012.9 | |
| 20260506092518 | 34 | 0.0 | 1.0 | 0.00 | 0.00 | 0.00 | 82 | 1013.0 | |
| 20260506091516 | 34 | 0.0 | 1.0 | 0.00 | 0.00 | 0.00 | 78 | 1013.3 | |
| 20260506090517 | 34 | 0.0 | 1.0 | 0.00 | 0.00 | 0.00 | 78 | 1013.1 | |
| 20260506085517 | 35 | 45 | 1.0 | 2.0 | 0.00 | 0.00 | 0.00 | 77 | 1013.1 |
| 20260506084517 | 35 | 0.0 | 1.0 | 0.00 | 0.00 | 0.00 | 75 | 1013.2 | |
| 20260506083539 | 35 | 23 | 1.0 | 3.0 | 0.00 | 0.00 | 0.00 | 75 | 1013.1 |
| 20260506082518 | 35 | 23 | 2.0 | 3.0 | 0.00 | 0.00 | 0.00 | 76 | 1012.9 |
| 20260506081538 | 35 | 0.0 | 1.0 | 0.00 | 0.00 | 0.00 | 75 | 1012.9 | |
| 20260506080518 | 35 | 0.0 | 1.0 | 0.00 | 0.00 | 0.00 | 73 | 1012.8 |